#timestamp,LO_Frequency,Hit,StdDev 
1697162415.2,286047001.5,N
1697162435.0,286047001.3,N
1697162435.9,286047001.3,N
1697162455.8,286047004.4,Y
1697162475.6,286047002.4,P
1697162495.4,286047002.4,P
1697162515.3,286047002.5,P
1697162535.1,286046999.7,N
1697162555.9,286046999.7,N
1697162575.7,286047002.0,N
1697162595.5,286047001.8,N
1697162615.4,286047005.9,Y
1697162635.2,286047003.2,P
1697162655.0,286047005.6,P
1697162655.9,286047005.6,P
1697162675.8,286047004.4,N
1697162695.6,286047003.9,N
1697162715.5,286047002.9,N
1697162735.3,286047004.8,Y
1697162755.1,286047001.6,P
1697162775.9,286047003.9,P
1697162795.7,286047004.4,P
1697162815.6,286047004.4,Y
1697162835.4,286046998.4,P
1697162885.3,286046997.5,E
1697162895.2,286046997.4,N
1697162915.0,286046998.7,P
1697162915.9,286046998.7,N
1697162935.8,286046999.1,N
1697162955.6,286046997.1,Y
1697162975.4,286046999.5,P
1697162995.3,286046996.6,P
1697163015.1,286046999.6,N
1697163035.8,286046996.8,N
1697163055.7,286046996.7,N
1697163075.5,286046996.6,N
1697163095.4,286046996.7,N
1697163115.2,286046997.0,N
1697163135.0,286046996.8,N
1697163135.9,286046996.8,N
1697163155.8,286046997.6,N
1697163175.6,286046997.5,N
1697163195.4,286046997.1,N
1697163215.3,286046996.7,Y
1697163235.1,286047001.7,P
1697163255.9,286047002.5,N
1697163275.7,286047002.4,N
1697163295.5,286047000.2,N
1697163315.4,286047000.6,N
1697163335.2,286047000.4,N
1697163355.0,286047000.4,N
1697163355.9,286047000.4,N
1697163375.8,286047000.7,N
1697163395.6,286047000.9,N
1697163415.5,286047001.2,N
1697163435.3,286046998.1,N
1697163455.1,286047001.0,N
1697163475.9,286047001.1,N
1697163495.7,286047000.5,N
1697163515.5,286047000.7,N
1697163535.4,286047000.8,N
1697163555.2,286046998.2,N
1697163575.1,286047000.8,N
1697163576.0,286047000.8,N
1697163595.8,286047000.8,N
1697163615.6,286047000.4,N
1697163635.5,286047000.0,N
1697163655.3,286047000.6,N
1697163675.1,286046998.1,N
1697163695.9,286047001.2,N
1697163715.7,286046998.1,N
1697163735.6,286046998.2,N
1697163755.4,286047000.8,N
1697163775.2,286047000.5,N
1697163795.1,286047000.0,N
1697163796.0,286047000.0,N
1697163815.8,286046998.5,N
1697163835.6,286046998.5,N
1697163855.5,286046998.2,N
1697163875.3,286046998.5,N
1697163895.2,286047001.2,N
1697163915.9,286047000.8,N
1697163935.7,286047001.0,N
1697163955.6,286047000.5,N
1697163975.4,286047000.6,N
1697163995.2,286047004.0,Y
1697164015.1,286047005.5,P
1697164016.0,286047005.5,N
1697164035.8,286047004.5,N
1697164055.7,286047004.6,N
1697164075.5,286047005.3,N
1697164095.3,286047007.3,Y
1697164115.2,286047001.6,P
1697164135.0,286047002.6,N
1697164135.9,286047002.6,N
1697164155.8,286047000.8,N
1697164175.6,286047000.8,N
1697164195.4,286047000.6,N
1697164215.3,286047000.4,N
1697164235.1,286047000.7,N
1697164255.8,286047001.1,N
1697164275.7,286046998.4,N
1697164295.5,286046998.9,N
1697164345.4,286047000.7,E
1697164355.3,286047000.2,N
1697164375.1,286046998.1,P
1697164395.9,286047000.4,N
1697164415.7,286047001.0,N
1697164435.6,286047000.8,N
1697164455.4,286046998.8,N
1697164475.2,286046997.0,N
1697164495.1,286046996.8,N
1697164496.0,286046996.8,N
1697164515.8,286046999.0,N
1697164535.6,286047000.3,N
1697164555.5,286047000.2,N
1697164575.3,286047002.8,N
1697164595.2,286047002.3,N
1697164615.9,286046999.8,N
1697164635.7,286046998.6,N
1697164655.6,286046999.1,N
1697164675.4,286046996.9,N
1697164695.2,286046996.5,N
1697164715.1,286046997.6,N
1697164716.0,286046997.6,N
1697164735.8,286046995.4,N
1697164755.7,286046997.4,N
1697164775.5,286046997.9,N
1697164795.3,286046997.4,N
1697164815.2,286046997.0,N
1697164835.0,286046998.9,N
1697164835.9,286046998.9,N
1697164855.7,286046996.6,N
1697164875.6,286046996.5,N
1697164895.4,286046999.5,N
1697164915.3,286046996.7,N
1697164935.1,286046996.5,N
1697164936.0,286046996.5,N
1697164955.8,286046999.1,N
1697164975.7,286046999.5,N
1697164995.5,286046996.6,N
1697165015.3,286047001.2,N
1697165035.2,286047000.7,N
1697165055.0,286047000.5,N
1697165055.9,286047000.5,N
1697165075.8,286047000.1,N
1697165095.6,286047003.8,N
1697165115.4,286047003.6,N
1697165135.3,286047003.7,N
1697165155.1,286047004.3,N
1697165175.8,286047001.4,N
1697165195.7,286047002.4,N
1697165215.5,286047002.4,N
1697165235.4,286047000.2,N
1697165255.2,286047000.3,N
1697165275.0,286047000.3,N
1697165275.9,286047000.3,N
1697165295.8,286047002.0,N
1697165315.6,286047001.9,N
1697165335.4,286047002.5,N
1697165355.3,286047004.3,N
1697165375.1,286047001.7,N
1697165395.9,286047002.9,N
1697165415.7,286047001.4,N
1697165435.5,286047003.2,N
1697165455.4,286047004.2,N
1697165475.2,286047004.3,N
1697165495.0,286047002.3,N
1697165496.0,286047002.3,N
1697165515.8,286047000.5,N
1697165535.6,286046998.7,N
1697165555.5,286047000.5,N
1697165575.3,286046999.8,N
1697165595.1,286047001.9,N
1697165615.9,286047001.7,N
1697165635.7,286047004.4,N
1697165655.6,286047002.5,N
1697165675.4,286047002.8,N
1697165695.2,286047002.6,N
1697165715.1,286047002.5,N
1697165716.0,286047002.5,N
1697165735.8,286047002.7,N
1697165755.6,286047002.2,N
1697165775.5,286046999.7,N
1697165795.3,286047001.6,N
1697165815.2,286047001.5,N
1697165835.9,286047004.1,N
1697165855.7,286047004.4,Y
1697165875.6,286046998.5,P
1697165895.4,286046998.6,N
1697165915.2,286046997.1,N
1697165935.1,286046998.0,N
1697165936.0,286046998.0,N
1697165955.8,286046995.2,N
1697165975.7,286046995.5,N
1697165995.5,286046995.2,N
